Location: Bidart
(43.4376°N, 1.5913°W)
Time: 12:39:36
(UTC+00:00)

ISS - Pass Details

Date: 25 January 2026
Orbit: 413 x 429 km, 51.6° (Epoch: 11 February)

Event Time Altitude Azimuth Distance (km) Brightness Sun altitude
Rises 19:19:01 0° 302° (WNW) 2,369 0.9 -23.6°
Reaches altitude 10° 19:21:07 10° 304° (NW) 1,505 -0.3 -24.0°
Enters shadow 19:23:02 31° 308° (NW) 760 -2.1 -24.3°
